sat.trackr.live / text

‹ back to catalog

STARLINK-5987

NORAD 56455 · 2023-064H

PAYLOAD ACTIVE UNKNOWN

§ Identity

Operator
Country
US
Launch date
2023-05-10
Launch site
AFWTR
Launch vehicle
Mass (kg)
RCS (m²)

Purposes: comms

External: N2YO · Heavens-Above · Gunter

§ Orbital elements

Epoch: 2026-05-25T04:12:28.848096Z

Period
96.11 min
Inclination
69.9990°
Eccentricity
0.0002867
Mean motion
14.98330830 rev/d
Perigee alt
570.1 km
Apogee alt
574.0 km
Semi-major
6,950.2 km
B*
1.5633e-5
RAAN
311.5746°
Arg perigee
267.4533°
Mean anomaly
92.6297°
Rev number
16,670

§ Raw data

STARLINK-59871 56455U 23064H   26145.17533389  .00000094  00000+0  15633-4 0  99912 56455  69.9990 311.5746 0002867 267.4533  92.6297 14.98330830166703

JSON: /api/v1/satellites/56455 · /tle

For live sub-satellite position, see the globe view (requires WebGL).

§ Visibility from observer

Set your observer location to see the next 7 days of passes ≥ 10°. The values pass through the URL so the page stays shareable.

No JS? Fill the form by hand. The geolocation button needs JavaScript.